TimeEST,TemperatureF,Dew PointF,Humidity,Sea Level PressureIn,VisibilityMPH,Wind Direction,Wind SpeedMPH,Gust SpeedMPH,PrecipitationIn,Events,Conditions,WindDirDegrees,DateUTC
12:32 AM,39.2,33.8,81,30.12,9.0,Calm,Calm,-,N/A,,Overcast,0,2012-12-16 05:32:00
12:52 AM,39.2,33.8,81,30.12,9.0,SSE,4.6,-,N/A,,Overcast,150,2012-12-16 05:52:00
12:54 AM,39.9,33.1,77,30.14,9.0,Calm,Calm,-,N/A,,Overcast,0,2012-12-16 05:54:00
1:17 AM,39.2,33.8,81,30.10,10.0,Calm,Calm,-,N/A,,Overcast,0,2012-12-16 06:17:00
1:54 AM,39.9,33.1,77,30.11,10.0,SE,8.1,-,N/A,,Overcast,130,2012-12-16 06:54:00
2:54 AM,41.0,33.8,76,30.07,10.0,Variable,3.5,-,N/A,,Overcast,0,2012-12-16 07:54:00
3:14 AM,41.0,33.8,76,30.07,10.0,Variable,3.5,-,N/A,,Overcast,0,2012-12-16 08:14:00
3:31 AM,41.0,33.8,76,30.05,10.0,SE,6.9,-,N/A,,Overcast,130,2012-12-16 08:31:00
3:54 AM,41.0,34.0,76,30.08,10.0,Calm,Calm,-,N/A,,Overcast,0,2012-12-16 08:54:00
4:05 AM,41.0,33.8,76,30.06,10.0,Variable,4.6,-,N/A,,Overcast,0,2012-12-16 09:05:00
4:54 AM,41.0,34.0,76,30.06,10.0,Variable,3.5,-,N/A,,Overcast,0,2012-12-16 09:54:00
5:14 AM,41.0,33.8,76,30.05,10.0,South,3.5,-,N/A,,Overcast,170,2012-12-16 10:14:00
5:54 AM,42.1,35.1,76,30.04,10.0,ESE,3.5,-,N/A,,Overcast,120,2012-12-16 10:54:00
6:19 AM,42.8,35.6,76,30.04,10.0,Calm,Calm,-,N/A,,Overcast,0,2012-12-16 11:19:00
6:54 AM,42.1,36.0,79,30.05,10.0,ENE,3.5,-,N/A,,Overcast,70,2012-12-16 11:54:00
7:54 AM,43.0,37.0,80,30.04,9.0,Calm,Calm,-,N/A,,Overcast,0,2012-12-16 12:54:00
8:54 AM,43.0,37.0,80,30.03,8.0,Calm,Calm,-,0.00,,Overcast,0,2012-12-16 13:54:00
9:54 AM,44.1,37.9,79,30.03,8.0,SE,6.9,-,N/A,,Overcast,130,2012-12-16 14:54:00
10:54 AM,44.1,39.0,82,30.01,8.0,SE,6.9,-,N/A,,Overcast,130,2012-12-16 15:54:00
11:54 AM,45.0,39.0,80,29.99,9.0,Variable,3.5,-,N/A,,Overcast,0,2012-12-16 16:54:00
12:54 PM,46.0,39.0,76,29.96,9.0,ESE,4.6,-,0.00,Rain,Light Rain,120,2012-12-16 17:54:00
1:54 PM,45.0,39.0,80,29.94,10.0,ESE,4.6,-,0.00,,Overcast,120,2012-12-16 18:54:00
2:03 PM,44.6,39.2,81,29.93,10.0,Variable,6.9,-,N/A,,Overcast,0,2012-12-16 19:03:00
2:54 PM,44.1,39.0,82,29.93,10.0,ESE,8.1,-,0.00,,Overcast,120,2012-12-16 19:54:00
3:54 PM,43.0,39.0,86,29.92,10.0,East,6.9,-,N/A,,Overcast,90,2012-12-16 20:54:00
4:54 PM,43.0,37.9,82,29.91,10.0,Variable,4.6,-,N/A,,Overcast,0,2012-12-16 21:54:00
5:54 PM,43.0,37.0,80,29.91,10.0,Variable,5.8,-,N/A,,Overcast,0,2012-12-16 22:54:00
6:54 PM,43.0,37.0,80,29.90,10.0,ESE,9.2,17.3,N/A,,Overcast,110,2012-12-16 23:54:00
7:54 PM,42.1,37.0,82,29.89,10.0,Variable,6.9,-,N/A,,Overcast,0,2012-12-17 00:54:00
8:54 PM,42.1,37.0,82,29.88,10.0,Variable,4.6,-,N/A,,Overcast,0,2012-12-17 01:54:00
9:54 PM,42.1,37.0,82,29.88,10.0,Variable,5.8,-,0.00,,Overcast,0,2012-12-17 02:54:00
10:54 PM,41.0,37.0,86,29.88,10.0,Variable,4.6,-,N/A,,Overcast,0,2012-12-17 03:54:00
11:54 PM,41.0,37.0,86,29.86,10.0,Variable,3.5,-,0.00,Rain,Light Rain,0,2012-12-17 04:54:00